Regional Weather Roundup
Issued by NWS Charleston, WV

Home | Current Version | Previous Version | Graphics & Text | Print | Product List | Glossary On
Versions: 1 2 3 4 5 6 7 8 9 10 11 12 13 14 15 16 17 18 19 20 21 22 23 24 25 26 27
000
ASUS41 KRLX 240010
RWRRLX
West Virginia Regional Weather Roundup
National Weather Service Charleston WV
700 PM EST FRI FEB 23 2018

Note: "fair" indicates few or no clouds below 12,000 feet with no
significant weather and/or obstructions to visibility.

WVZ003-240100-
Northern Panhandle of West Virginia

CITY           SKY/WX    TMP DP  RH WIND       PRES   REMARKS
WHEELING       MOCLDY    61  56  83 W7        30.19R
$$

WVZ009-240100-
Northwest West Virginia

CITY           SKY/WX    TMP DP  RH WIND       PRES   REMARKS
PARKERSBURG    FAIR      63  58  83 W6        30.23R
$$

WVZ006-240100-
Western West Virginia

CITY           SKY/WX    TMP DP  RH WIND       PRES   REMARKS
HUNTINGTON     FAIR      69  56  62 W6        30.21R
$$

WVZ015-240100-
West Central West Virginia

CITY           SKY/WX    TMP DP  RH WIND       PRES   REMARKS
CHARLESTON     MOCLDY    65  61  87 CALM      30.21R
$$

WVZ022-031-240100-
North Central West Virginia

CITY           SKY/WX    TMP DP  RH WIND       PRES   REMARKS
CLARKSBURG     MOCLDY    64  57  78 S5        30.20S
MORGANTOWN     FAIR      65  55  70 SW5       30.20S
$$

WVZ025-035-042-045-240100-
Southern West Virginia

CITY           SKY/WX    TMP DP  RH WIND       PRES   REMARKS
BECKLEY        FAIR      58  52  80 SW7       30.28S
LOGAN          FAIR      70  55  60 CALM      30.25S
BLUEFIELD      FAIR      65  47  52 W6        30.31R
LEWISBURG      FAIR      65  56  74 CALM      30.29R
$$

WVZ047-240100-
Northern Mountains of West Virginia

CITY           SKY/WX    TMP DP  RH WIND       PRES   REMARKS
ELKINS         FAIR      65  52  62 SW9       30.25S
$$

WVZ052-240100-
Eastern Panhandle of West Virginia

CITY           SKY/WX    TMP DP  RH WIND       PRES   REMARKS
MARTINSBURG    CLOUDY    44  43  96 CALM      30.29R
PETERSBURG     FAIR      45  43  93 CALM      30.27R
$$




USA.gov is the U.S. government's official web portal to all federal, state and local government web resources and services.